Weather History for Orange City, IA

Change the Weather History Date:

Sunday, December 9, 2012

  Actual Average Record
Temperature  
Mean Temperature 22 °F -  
Max Temperature 33 °F 34 °F 46 °F (1998)
Min Temperature 12 °F 19 °F -7 °F (2013)
Degree Days  
Heating Degree Days 42    
Moisture  
Dew Point 18 °F    
Average Humidity 82    
Maximum Humidity 87    
Minimum Humidity 67    
Precipitation  
Precipitation 0.00 in - - ()
Sea Level Pressure  
Sea Level Pressure 29.88 in    
Wind  
Wind Speed 15 mph (WNW)    
Max Wind Speed 31 mph    
Max Gust Speed 36 mph    
Visibility 8 miles    
Events Snow    
Averages and records for this station are not official NWS values.
T = Trace of Precipitation, MM = Missing Value Source: NWS Daily Summary

Daily Weather History Graph

Daily Weather History Graph

Search for Another Location

Airport:

Trip Planner

Search our weather history database for the weather conditions in past years. The results will help you decide how hot, cold, wet, or windy it might be!

Date:

Astronomy

Dec. 09, 2012 Rise Set
Actual Time 7:44 AM CST 4:49 PM CST
Civil Twilight 7:11 AM CST 5:21 PM CST
Nautical Twilight 6:36 AM CST 5:57 PM CST
Astronomical Twilight 6:01 AM CST 6:31 PM CST
Moon 3:13 AM CST (12/9) 2:01 PM CST (12/9)
Length of Visible Light 10h 09m
Length of Day
9h 05m
Waning Crescent, 18% of the Moon is Illuminated
Dec 9
Waning Crescent
Dec 13
New
Dec 19
First Quarter
Dec 28
Full
Jan 4
Last Quarter

Hourly Weather History & Observations

Time (CST) Temp. Windchill Dew Point Humidity Pressure Visibility Wind Dir Wind Speed Gust Speed Precip Events Conditions
12:15 AM 33.8 °F 25.8 °F 30.2 °F 87% 29.83 in 7.0 mi SSE 10.4 mph - N/A   Overcast
12:35 AM 33.8 °F 25.8 °F 30.2 °F 87% 29.83 in 7.0 mi SSE 10.4 mph 16.1 mph N/A   Overcast
1:15 AM 33.8 °F 25.8 °F 30.2 °F 87% 29.82 in 5.0 mi SSE 10.4 mph 17.3 mph N/A   Overcast
1:35 AM 33.8 °F 27.0 °F 30.2 °F 87% 29.82 in 5.0 mi SSE 8.1 mph - N/A   Overcast
1:55 AM 33.8 °F 25.3 °F 30.2 °F 87% 29.82 in 5.0 mi SSE 11.5 mph 17.3 mph N/A   Overcast
2:15 AM 33.8 °F 25.8 °F 30.2 °F 87% 29.82 in 5.0 mi SSE 10.4 mph - N/A   Overcast
2:35 AM 33.8 °F 26.4 °F 30.2 °F 87% 29.82 in 5.0 mi SSE 9.2 mph - N/A   Overcast
2:55 AM 33.8 °F 25.3 °F 30.2 °F 87% 29.80 in 4.0 mi SSE 11.5 mph 18.4 mph N/A Snow Light Snow
3:15 AM 33.8 °F 24.8 °F 30.2 °F 87% 29.78 in 3.0 mi SSE 12.7 mph 17.3 mph N/A Snow Light Snow
3:35 AM 33.8 °F 25.8 °F 30.2 °F 87% 29.78 in 4.0 mi SSE 10.4 mph 18.4 mph N/A Snow Light Snow
3:55 AM 33.8 °F 25.3 °F 30.2 °F 87% 29.78 in 5.0 mi South 11.5 mph - N/A   Overcast
4:15 AM 33.8 °F 26.4 °F 30.2 °F 87% 29.78 in 5.0 mi South 9.2 mph 16.1 mph N/A   Overcast
4:35 AM 33.8 °F 27.0 °F 30.2 °F 87% 29.77 in 4.0 mi South 8.1 mph - N/A   Overcast
4:55 AM 33.8 °F 25.8 °F 30.2 °F 87% 29.77 in 4.0 mi South 10.4 mph - N/A   Overcast
5:15 AM 33.8 °F 26.4 °F 30.2 °F 87% 29.77 in 4.0 mi South 9.2 mph - N/A   Overcast
5:35 AM 33.8 °F 25.8 °F 30.2 °F 87% 29.78 in 4.0 mi SSW 10.4 mph - N/A   Overcast
5:55 AM 33.8 °F 25.8 °F 30.2 °F 87% 29.78 in 4.0 mi SSW 10.4 mph - N/A   Overcast
6:15 AM 33.8 °F 26.4 °F 30.2 °F 87% 29.79 in 7.0 mi West 9.2 mph - N/A   Overcast
6:35 AM 33.8 °F 26.4 °F 30.2 °F 87% 29.78 in 10.0 mi West 9.2 mph - N/A   Overcast
6:55 AM 33.8 °F 24.8 °F 28.4 °F 81% 29.80 in 10.0 mi West 12.7 mph - N/A   Overcast
7:15 AM 30.2 °F 18.9 °F 26.6 °F 86% 29.80 in 10.0 mi West 16.1 mph 23.0 mph N/A   Overcast
7:35 AM 30.2 °F 18.1 °F 26.6 °F 86% 29.80 in 10.0 mi West 18.4 mph 23.0 mph N/A   Overcast
7:55 AM 28.4 °F 15.8 °F 24.8 °F 86% 29.82 in 10.0 mi West 18.4 mph - N/A   Overcast
8:15 AM 28.4 °F 14.7 °F 21.2 °F 74% 29.83 in 10.0 mi WSW 21.9 mph - N/A   Overcast
8:35 AM 26.6 °F 14.3 °F 21.2 °F 80% 29.83 in 10.0 mi West 16.1 mph - N/A   Overcast
8:55 AM 26.6 °F 14.7 °F 21.2 °F 80% 29.83 in 10.0 mi WSW 15.0 mph 20.7 mph N/A   Overcast
9:15 AM 26.6 °F 14.3 °F 21.2 °F 80% 29.83 in 10.0 mi West 16.1 mph 21.9 mph N/A   Overcast
9:35 AM 23.0 °F 8.7 °F 19.4 °F 86% 29.84 in 10.0 mi West 18.4 mph - N/A   Overcast
9:55 AM 23.0 °F 8.3 °F 17.6 °F 80% 29.84 in 10.0 mi West 19.6 mph 26.5 mph N/A   Overcast
10:15 AM 21.2 °F 6.8 °F 17.6 °F 86% 29.85 in 10.0 mi WSW 17.3 mph - N/A   Overcast
10:35 AM 21.2 °F 5.6 °F 17.6 °F 86% 29.85 in 10.0 mi West 20.7 mph 24.2 mph N/A   Overcast
10:55 AM 21.2 °F 4.2 °F 17.6 °F 86% 29.83 in 10.0 mi West 25.3 mph - N/A   Overcast
11:15 AM 21.2 °F 4.9 °F 17.6 °F 86% 29.82 in 10.0 mi West 23.0 mph - N/A   Overcast
11:35 AM 19.4 °F 2.5 °F 15.8 °F 86% 29.81 in 7.0 mi West 23.0 mph - N/A   Overcast
12:15 PM 21.2 °F 4.2 °F 17.6 °F 86% 29.79 in 10.0 mi West 25.3 mph 29.9 mph N/A   Overcast
12:35 PM 23.0 °F 6.6 °F 19.4 °F 86% 29.80 in 10.0 mi West 25.3 mph 32.2 mph N/A   Overcast
12:55 PM 24.8 °F 8.1 °F 19.4 °F 80% 29.80 in 10.0 mi WNW 28.8 mph 34.5 mph N/A   Overcast
1:15 PM 24.8 °F 9.0 °F 19.4 °F 80% 29.80 in 10.0 mi WNW 25.3 mph 35.7 mph N/A   Overcast
1:35 PM 24.8 °F 7.6 °F 19.4 °F 80% 29.82 in 10.0 mi NW 31.1 mph 35.7 mph N/A   Overcast
1:55 PM 23.0 °F 5.7 °F 17.6 °F 80% 29.84 in 10.0 mi NW 28.8 mph 35.7 mph N/A   Overcast
2:15 PM 21.2 °F 3.5 °F 17.6 °F 86% 29.85 in 10.0 mi NW 27.6 mph 35.7 mph N/A   Overcast
2:35 PM 21.2 °F 4.2 °F 15.8 °F 80% 29.86 in 10.0 mi NW 25.3 mph 34.5 mph N/A   Overcast
2:55 PM 19.4 °F 2.1 °F 15.8 °F 86% 29.87 in 10.0 mi NW 24.2 mph 35.7 mph N/A   Overcast
3:15 PM 19.4 °F 2.8 °F 15.8 °F 86% 29.88 in 10.0 mi NW 21.9 mph 31.1 mph N/A   Overcast
3:35 PM 19.4 °F 1.4 °F 15.8 °F 86% 29.89 in 7.0 mi NW 26.5 mph 35.7 mph N/A Snow Light Snow
3:55 PM 19.4 °F 3.2 °F 15.8 °F 86% 29.91 in 7.0 mi NW 20.7 mph 32.2 mph N/A Snow Light Snow
4:15 PM 19.4 °F 3.6 °F 15.8 °F 86% 29.93 in 5.0 mi NNW 19.6 mph 29.9 mph N/A Snow Light Snow
4:35 PM 17.6 °F 1.3 °F 14.0 °F 86% 29.93 in 3.0 mi NW 19.6 mph 29.9 mph N/A Snow Light Snow
4:55 PM 17.6 °F 1.3 °F 12.2 °F 79% 29.94 in 3.0 mi NNW 19.6 mph 27.6 mph N/A Snow Light Snow
5:15 PM 17.6 °F 0.5 °F 12.2 °F 79% 29.95 in 2.5 mi NNW 21.9 mph 32.2 mph N/A Snow Light Snow
5:35 PM 15.8 °F -1.1 °F 10.4 °F 79% 29.97 in 5.0 mi NNW 19.6 mph 27.6 mph N/A Snow Light Snow
5:55 PM 15.8 °F -1.5 °F 10.4 °F 79% 29.97 in 3.0 mi NNW 20.7 mph 31.1 mph N/A Snow Light Snow
6:15 PM 15.8 °F -2.3 °F 10.4 °F 79% 29.98 in 4.0 mi NW 23.0 mph 32.2 mph N/A Snow Light Snow
6:35 PM 15.8 °F -2.7 °F 10.4 °F 79% 29.99 in 5.0 mi NNW 24.2 mph 31.1 mph N/A Snow Light Snow
6:55 PM 15.8 °F 0.3 °F 10.4 °F 79% 30.00 in 7.0 mi NNW 16.1 mph 31.1 mph N/A Snow Light Snow
7:15 PM 14.0 °F -3.0 °F 10.4 °F 86% 30.01 in 5.0 mi NNW 18.4 mph 28.8 mph N/A Snow Light Snow
7:35 PM 14.0 °F -3.0 °F 8.6 °F 79% 30.02 in 10.0 mi NW 18.4 mph 27.6 mph N/A Snow Light Snow
7:55 PM 12.2 °F -7.1 °F 6.8 °F 79% 30.03 in 10.0 mi NW 23.0 mph 29.9 mph N/A   Overcast
8:15 PM 12.2 °F -5.3 °F 6.8 °F 79% 30.03 in 10.0 mi NW 18.4 mph 26.5 mph N/A   Overcast
8:35 PM 14.0 °F -4.3 °F 6.8 °F 73% 30.03 in 10.0 mi NW 21.9 mph 28.8 mph N/A   Overcast
8:55 PM 14.0 °F -3.4 °F 6.8 °F 73% 30.03 in 10.0 mi NNW 19.6 mph 28.8 mph N/A   Overcast
9:15 PM 14.0 °F -3.9 °F 6.8 °F 73% 30.04 in 10.0 mi NW 20.7 mph 31.1 mph N/A   Overcast
9:35 PM 12.2 °F -5.8 °F 5.0 °F 73% 30.04 in 10.0 mi NNW 19.6 mph 28.8 mph N/A   Overcast
9:55 PM 12.2 °F -3.7 °F 5.0 °F 73% 30.04 in 10.0 mi NNW 15.0 mph 24.2 mph N/A   Overcast
10:15 PM 12.2 °F -4.8 °F 3.2 °F 67% 30.05 in 10.0 mi NNW 17.3 mph 28.8 mph N/A   Overcast
10:35 PM 12.2 °F -5.8 °F 6.8 °F 79% 30.05 in 10.0 mi NNW 19.6 mph 27.6 mph N/A   Overcast
10:55 PM 12.2 °F -6.3 °F 5.0 °F 73% 30.05 in 10.0 mi NNW 20.7 mph 27.6 mph N/A   Overcast
11:15 PM 12.2 °F -5.3 °F 3.2 °F 67% 30.05 in 10.0 mi NNW 18.4 mph 31.1 mph N/A   Overcast
11:35 PM 12.2 °F -3.7 °F 3.2 °F 67% 30.05 in 10.0 mi NNW 15.0 mph 27.6 mph N/A   Overcast
11:55 PM 12.2 °F -4.8 °F 3.2 °F 67% 30.05 in 10.0 mi NW 17.3 mph 21.9 mph N/A   Overcast